Showing default

RADIATION SAT (5E 1), 671

Orbit data source: Space-Track

RADIATION SAT (5E 1), 671 is a payload satellite owned by USN BuWeps (US) in LEO that was launched on Sat, 28 Sep 1963 UTC via a THOR ABLESTAR launch vehicle from the Air Force Western Test Range (AFWTR). Payload-class satellites include a variety of spacecraft equipped with specific instruments for various scientific and technological missions. These include communications satellites like Starlink; space stations such as the ISS; scientific satellites like the Hubble; Earth observation satellites from companies like Planet Labs, Umbra, and HawkEye 360; GPS; miniature CubeSats for education and research; and military/defense satellites.

Loading next visibility...
Identifier
671, 1963-038C
Orbit
LEO
Country
Flag of USUS
Related business
Manufacturer
APL
Mission
Spacecraft
Bus & Motor
TRANSIT 5, Unknown motor
Mass
59 kg wet, 59 kg dry
Launch date (UTC)
1963-09-28 (62 years ago)
Launch vehicle
THOR ABLESTAR
Launch site
Air Force Western Test Range (AFWTR)
Object type
Payload
Rocket body
Debris
Shape & HBR
Unknown
Radar Cross Section
Large (>1 m²)

Expand to show TLE details & history
Last TLE update: 16 hours ago

TLE from 16 hours ago
0 RADIATION SAT (5E 1)
1 00671U 63038C   25305.38452312  .00000104  00000-0  16094-3 0  9995
2 00671  89.9719 333.7350 0038208 283.8828  75.8071 13.45181143 44426
Epoch: 2025-11-01T09:13Z
TLE epoch observation values (Epoch: 2025-11-01T09:13:42.797Z)
Latitude
-0.00002°
Longitude
154.39131°
Altitude
1,086.093 km
Speed
7.312 km/s
True Right ascension
22h 14m 56s
True Declination
0° 00' 00"
Sunlit
Object was in daylight at epoch
Visualization orbit readout
Latitude
Unknown
Longitude
Unknown
Altitude
Unknown
Speed
Unknown
Apparent Right ascension
Unknown
Apparent Declination
Unknown
Sunlit
N/A
Visualization observer readout
Local Sidereal Time
20:31:36
Azimuth
Unknown
Elevation
Unknown
Doppler factor
Unknown
Orbital elements
Apogee altitude
1,115.621 km
Perigee altitude
1,058.575 km
Semi-major axis
7,465.235 km
Eccentricity
0.00382
Inclination
89.9719°
RAAN
333.735°
Arg. of periapsis
283.8828°
True anomaly
76.23206°
Mean anomaly
75.8071°
Eccentric anomaly
76.01953°
Mean motion
3.36494 °/min
Orbital period
106.99 mins
BSTAR
0.00016094
Loading maneuver chart data...
Computing Atmospheric mass density...

Documentation

Showing up to 5 results
|